[[{"header":{"parameterUnit":"m.s-1","parameterCategory":1,"la1":30.2991,"la2":30.254,"lo1":-89.0895,"lo2":-89.0444,"dy":0.0017,"dx":0.0017,"nx":28,"ny":28,"refTime":"2023-09-26T21:00:00:Z","depth":0,"parameterNumber":2,"parameterNumberName":"U-component_of_WINDS"},"data":[0,0,0,0,0,0,0,0,0,0,0,0,0,0,0,0,0,0,0,0,0,0,0,0,0,0,0,0,0,0,0,0,0,0,0,0,0,0,0,0,0,0,0,0,0,0,0,0,0,0,0,0,0,0,0,0,0,0,-2.2431,-2.2431,0,-2.2396,-2.2396,-2.2396,-2.2371,-2.237,-2.237,-2.237,-2.2336,-2.2335,-2.2335,0,0,0,0,0,0,0,0,0,0,0,0,0,-2.248,-2.248,-2.2431,-2.2431,-2.2431,-2.2396,-2.2396,-2.2395,-2.2371,-2.237,-2.237,-2.237,-2.2336,-2.2335,-2.2335,0,0,0,0,0,0,0,0,0,0,0,0,0,-2.2454,-2.2479,-2.2432,-2.2414,-2.2412,-2.2397,-2.2396,-2.2395,-2.2371,-2.237,-2.237,-2.237,-2.2337,-2.2336,-2.2335,-2.2334,0,0,-2.2331,-2.2331,0,0,0,0,0,0,0,0,-2.2455,-2.2452,-2.2417,-2.2415,-2.2413,-2.2388,-2.2401,-2.2375,-2.2371,-2.2387,-2.237,-2.237,-2.2354,-2.2351,-2.2345,-2.2332,-2.2331,-2.2331,-2.233,-2.233,-2.233,0,0,0,0,0,0,0,-2.2457,-2.2453,-2.2418,-2.2417,-2.2414,-2.2409,-2.2405,-2.2396,-2.2372,-2.2385,-2.2383,-2.2379,-2.2352,-2.2346,-2.2344,-2.233,-2.2331,-2.233,-2.233,-2.2329,-2.2319,-2.2319,0,0,0,0,0,0,-2.2461,-2.2455,-2.2419,-2.2417,-2.2434,-2.2408,-2.2404,-2.2396,-2.2372,-2.2368,-2.238,-2.2378,-2.2348,-2.2346,-2.2343,-2.2343,-2.233,-2.2329,-2.2328,-2.2318,-2.2319,-2.2319,0,0,0,0,0,0,-2.2462,-2.2458,-2.242,-2.2435,-2.243,-2.2408,-2.2399,-2.2396,-2.2389,-2.2368,-2.2364,-2.2377,-2.2348,-2.2345,-2.2337,-2.2341,-2.2329,-2.2328,-2.2318,-2.2318,-2.2319,-2.2341,0,0,0,0,0,0,-2.2464,-2.2459,-2.2457,-2.2435,-2.2429,-2.2414,-2.24,-2.2395,-2.2387,-2.2385,-2.2365,-2.2361,-2.2347,-2.2339,-2.2336,-2.2339,-2.2327,-2.2317,-2.2318,-2.2319,-2.234,-2.2342,-2.2344,0,0,0,0,0,-2.2466,-2.2465,-2.2457,-2.2453,-2.2427,-2.2414,-2.241,-2.2394,-2.2388,-2.2387,-2.2374,-2.2362,-2.2341,-2.2338,-2.2335,-2.2338,-2.2317,-2.2318,-2.2319,-2.2339,-2.2342,-2.2344,0,0,0,0,0,0,-2.2488,-2.2461,-2.2453,-2.2445,-2.2432,-2.241,-2.2408,-2.2397,-2.2386,-2.2385,-2.2365,-2.2361,-2.2356,-2.2346,-2.2343,-2.2338,-2.2328,-2.2328,-2.2344,-2.2347,-2.2349,-2.2352,-2.2326,0,0,0,0,0,-2.2491,-2.2482,-2.246,-2.2455,-2.2449,-2.243,-2.2423,-2.2412,-2.2398,-2.2392,-2.2378,-2.2366,-2.2357,-2.2351,-2.2341,-2.2338,-2.2335,-2.2339,-2.2341,-2.2343,-2.2344,-2.2344,-2.2346,-2.2322,-2.2322,-2.2322,0,0,-2.2499,-2.2484,-2.2479,-2.2459,-2.2448,-2.244,-2.2425,-2.2417,-2.2411,-2.2391,-2.2384,-2.2373,-2.2358,-2.2354,-2.2351,-2.2345,-2.235,-2.2344,-2.2346,-2.2346,-2.2345,-2.2348,-2.235,-2.2322,-2.2322,-2.2322,0,0,-2.2509,-2.2496,-2.2491,-2.2481,-2.2464,-2.2452,-2.2451,-2.2431,-2.2423,-2.2415,-2.2401,-2.2395,-2.2379,-2.2369,-2.2363,-2.2373,-2.2362,-2.237,-2.2382,-2.2382,-2.2384,-2.2386,-2.2392,-2.2393,-2.2371,-2.2371,-2.2371,0,-2.2521,-2.2508,-2.249,-2.2484,-2.2476,-2.2458,-2.2455,-2.2445,-2.2426,-2.2422,-2.2416,-2.2398,-2.2386,-2.238,-2.2383,-2.2378,-2.2377,-2.2372,-2.2385,-2.2387,-2.2388,-2.2393,-2.2395,-2.2372,-2.2372,-2.2372,-2.2372,0,-2.2524,-2.2516,-2.2514,-2.2497,-2.2489,-2.2484,-2.2467,-2.2462,-2.2452,-2.2441,-2.2435,-2.2421,-2.2409,-2.2407,-2.2396,-2.24,-2.2398,-2.2389,-2.2378,-2.2392,-2.2397,-2.2398,-2.2374,-2.2373,-2.2373,-2.2373,0,0,-2.2545,-2.2521,-2.252,-2.2513,-2.2495,-2.2488,-2.2484,-2.2472,-2.2469,-2.2457,-2.2454,-2.2442,-2.2435,-2.2427,-2.2416,-2.2417,-2.2428,-2.2408,-2.2407,-2.2414,-2.2434,-2.2442,-2.2444,-2.2421,-2.2422,-2.2422,-2.2436,0,-2.2554,-2.2543,-2.2529,-2.2524,-2.2517,-2.2501,-2.2497,-2.2487,-2.2477,-2.2471,-2.246,-2.2453,-2.2442,-2.2438,-2.2438,-2.2427,-2.2432,-2.2425,-2.242,-2.242,-2.2425,-2.2446,-2.2453,-2.2467,-2.2437,-2.2438,-2.2438,0,-2.2561,-2.2551,-2.2546,-2.253,-2.2527,-2.2523,-2.2513,-2.2507,-2.2496,-2.2489,-2.2482,-2.247,-2.2467,-2.2457,-2.2453,-2.2449,-2.2446,-2.2441,-2.2441,-2.244,-2.243,-2.2447,-2.2471,-2.2474,-2.244,-2.244,-2.244,0,-2.2579,-2.2564,-2.256,-2.2554,-2.2535,-2.2534,-2.2526,-2.2515,-2.251,-2.2501,-2.2498,-2.249,-2.2485,-2.2479,-2.2467,-2.2461,-2.2465,-2.2454,-2.2461,-2.2461,-2.2462,-2.2462,-2.2487,-2.2459,-2.2459,-2.2459,-2.2459,0,-2.259,-2.2587,-2.2568,-2.2565,-2.2563,-2.2547,-2.2546,-2.2537,-2.2527,-2.2524,-2.251,-2.2507,-2.249,-2.2486,-2.2477,-2.2476,-2.2474,-2.2469,-2.2467,-2.2471,-2.2472,-2.2469,-2.2468,-2.2459,-2.2459,-2.2459,-2.2459,0,-2.2609,-2.2595,-2.259,-2.2574,-2.257,-2.2569,-2.2556,-2.2554,-2.2544,-2.254,-2.2538,-2.2523,-2.2518,-2.2506,-2.2497,-2.2491,-2.2493,-2.2488,-2.2497,-2.2496,-2.2504,-2.2504,-2.2528,-2.2532,-2.25,-2.2501,-2.2501,0,-2.2617,-2.2615,-2.2599,-2.2596,-2.2589,-2.2584,-2.2579,-2.2565,-2.2561,-2.255,-2.2549,-2.2543,-2.2537,-2.2531,-2.252,-2.2514,-2.2509,-2.2519,-2.2508,-2.2514,-2.2512,-2.2512,-2.2513,-2.2521,-2.2521,-2.2522,-2.2522,0,-2.2633,-2.2627,-2.262,-2.2613,-2.2608,-2.2601,-2.2593,-2.2592,-2.2576,-2.2573,-2.2567,-2.2563,-2.2555,-2.255,-2.2543,-2.2537,-2.2528,-2.2525,-2.2527,-2.2531,-2.2537,-2.2536,-2.2504,-2.2525,-2.2524,-2.2524,-2.2524,-2.2524,-2.2647,-2.2646,-2.2636,-2.263,-2.2623,-2.2617,-2.2615,-2.2606,-2.2601,-2.2594,-2.2586,-2.2582,-2.2574,-2.2564,-2.2559,-2.2557,-2.2552,-2.2553,-2.2554,-2.2555,-2.2558,-2.2537,-2.2555,-2.2555,-2.2555,-2.2555,-2.2555,0,-2.2664,-2.2657,-2.2652,-2.2643,-2.2639,-2.2631,-2.2623,-2.262,-2.2617,-2.261,-2.2606,-2.2601,-2.2597,-2.2587,-2.2583,-2.2584,-2.2579,-2.2583,-2.2583,-2.2583,-2.2562,-2.2562,-2.2587,-2.2587,-2.2587,-2.2587,-2.2587,-2.2587,-2.2672,-2.267,-2.2664,-2.2659,-2.2653,-2.2649,-2.2646,-2.2641,-2.2636,-2.2632,-2.2628,-2.2622,-2.2615,-2.261,-2.2607,-2.2604,-2.2604,-2.261,-2.2606,-2.2587,-2.2584,-2.2581,-2.2581,-2.2609,-2.2609,-2.2627,-2.2627,-2.2627]},{"header":{"parameterUnit":"m.s-1","parameterCategory":1,"la1":30.2991,"la2":30.254,"lo1":-89.0895,"lo2":-89.0444,"dy":0.0017,"dx":0.0017,"nx":28,"ny":28,"refTime":"2023-09-26T21:00:00:Z","depth":0,"parameterNumber":3,"parameterNumberName":"V-component_of_WINDS"},"data":[0,0,0,0,0,0,0,0,0,0,0,0,0,0,0,0,0,0,0,0,0,0,0,0,0,0,0,0,0,0,0,0,0,0,0,0,0,0,0,0,0,0,0,0,0,0,0,0,0,0,0,0,0,0,0,0,0,0,0.571,0.571,0,0.5707,0.5707,0.5707,0.5628,0.5626,0.5624,0.5622,0.5618,0.562,0.5622,0,0,0,0,0,0,0,0,0,0,0,0,0,0.5643,0.5644,0.571,0.571,0.571,0.5707,0.5707,0.5707,0.5628,0.5626,0.5623,0.5621,0.5618,0.562,0.5622,0,0,0,0,0,0,0,0,0,0,0,0,0,0.5659,0.5645,0.571,0.567,0.5666,0.5707,0.5707,0.5707,0.5629,0.5626,0.5623,0.562,0.5617,0.562,0.5622,0.5701,0,0,0.5631,0.5632,0,0,0,0,0,0,0,0,0.5658,0.5662,0.5676,0.5673,0.5669,0.5665,0.5682,0.5705,0.5629,0.5643,0.5622,0.5618,0.5636,0.5637,0.5643,0.5701,0.57,0.5631,0.5633,0.5634,0.5635,0,0,0,0,0,0,0,0.5657,0.5661,0.5708,0.5676,0.5672,0.5651,0.565,0.5686,0.5657,0.5642,0.5636,0.5637,0.5634,0.5641,0.5643,0.57,0.5631,0.5633,0.5635,0.5636,0.5815,0.5818,0,0,0,0,0,0,0.5662,0.5661,0.5709,0.5708,0.5656,0.5655,0.5654,0.5669,0.5656,0.5651,0.5639,0.5633,0.5638,0.564,0.5642,0.5728,0.5634,0.5636,0.5638,0.5812,0.5815,0.5819,0,0,0,0,0,0,0.5661,0.5667,0.5709,0.5683,0.5687,0.5659,0.5677,0.5671,0.5678,0.5654,0.5649,0.5652,0.5636,0.5639,0.5685,0.5727,0.5638,0.564,0.5808,0.5813,0.5817,0.5903,0,0,0,0,0,0,0.5659,0.5667,0.5698,0.5684,0.5688,0.5753,0.568,0.5673,0.5683,0.5674,0.5665,0.5661,0.5633,0.5682,0.5688,0.5729,0.5642,0.5804,0.581,0.5816,0.5896,0.591,0.5922,0,0,0,0,0,0.5657,0.5723,0.57,0.5706,0.5726,0.5756,0.5758,0.5726,0.5687,0.5716,0.57,0.5661,0.5722,0.5687,0.5694,0.5736,0.5801,0.5808,0.5815,0.5891,0.5907,0.5922,0,0,0,0,0,0,0.5743,0.5721,0.5694,0.5759,0.576,0.5742,0.5779,0.5745,0.5758,0.5749,0.5708,0.5707,0.5759,0.5753,0.5714,0.5808,0.5754,0.5763,0.581,0.5825,0.5838,0.5836,0.5645,0,0,0,0,0,0.577,0.5796,0.5775,0.5834,0.5835,0.5807,0.5819,0.5793,0.5793,0.5793,0.5781,0.5781,0.5799,0.5813,0.5829,0.5896,0.589,0.5928,0.5941,0.5952,0.5958,0.5987,0.6002,0.5842,0.5842,0.5842,0,0,0.5824,0.5815,0.5835,0.585,0.5848,0.5874,0.5808,0.584,0.5858,0.5798,0.5839,0.5831,0.5828,0.5884,0.5908,0.588,0.6001,0.596,0.5969,0.597,0.5996,0.6011,0.6025,0.5846,0.5846,0.5845,0,0,0.5936,0.5935,0.598,0.5978,0.5975,0.5955,0.5966,0.5954,0.5945,0.5986,0.5939,0.5961,0.5995,0.5993,0.5997,0.6104,0.6066,0.6111,0.6176,0.6205,0.6217,0.6228,0.6261,0.6274,0.6118,0.6119,0.6119,0,0.6005,0.6043,0.6008,0.6041,0.6047,0.5993,0.6036,0.6037,0.604,0.6044,0.6014,0.6052,0.6047,0.6098,0.6124,0.6131,0.6139,0.611,0.6219,0.6229,0.6239,0.627,0.6283,0.6124,0.6123,0.6122,0.6122,0,0.6124,0.6151,0.6188,0.619,0.6201,0.624,0.6208,0.6223,0.6196,0.6179,0.6219,0.6211,0.6222,0.6233,0.6208,0.628,0.6262,0.6226,0.6171,0.626,0.6288,0.63,0.6131,0.6129,0.6127,0.6126,0,0,0.629,0.6269,0.6283,0.6281,0.6272,0.6291,0.6326,0.6336,0.6347,0.6351,0.6376,0.6404,0.6369,0.6374,0.6348,0.6374,0.6452,0.6334,0.6333,0.6352,0.6524,0.6548,0.6563,0.6429,0.6431,0.6433,0.6523,0,0.6394,0.6452,0.6419,0.6481,0.6502,0.6449,0.6479,0.6475,0.646,0.6475,0.6457,0.6476,0.6432,0.6433,0.6456,0.6438,0.6486,0.6432,0.6448,0.6449,0.6446,0.6578,0.6604,0.6689,0.6534,0.6536,0.6537,0,0.6523,0.6529,0.6592,0.6574,0.6582,0.6609,0.6612,0.6629,0.6622,0.6609,0.6612,0.6578,0.6608,0.6556,0.6594,0.6558,0.6563,0.6555,0.6557,0.6554,0.6496,0.6574,0.6717,0.6728,0.6555,0.6554,0.6553,0,0.6631,0.6655,0.6694,0.6695,0.6677,0.6696,0.6689,0.6679,0.6686,0.6689,0.6692,0.67,0.6703,0.6709,0.6677,0.6643,0.6717,0.6664,0.6703,0.6704,0.6719,0.6718,0.6859,0.673,0.673,0.673,0.6729,0,0.6747,0.6787,0.6741,0.6765,0.6806,0.6768,0.681,0.6797,0.6789,0.6807,0.6764,0.6782,0.6741,0.6754,0.673,0.6762,0.6765,0.6752,0.6745,0.6754,0.6755,0.6754,0.6745,0.6733,0.6732,0.6732,0.6731,0,0.6873,0.6846,0.6884,0.6862,0.6857,0.6888,0.6869,0.6888,0.6869,0.6893,0.6896,0.6866,0.6878,0.6848,0.6858,0.6841,0.6885,0.687,0.6887,0.688,0.692,0.6915,0.7062,0.7078,0.6943,0.6945,0.6946,0,0.6947,0.6976,0.6956,0.6965,0.696,0.6976,0.6981,0.6944,0.6951,0.6944,0.6963,0.6973,0.6977,0.7,0.6977,0.6983,0.6965,0.7016,0.6965,0.6972,0.6959,0.6956,0.6957,0.7026,0.7027,0.7029,0.703,0,0.708,0.7063,0.7073,0.7077,0.7084,0.7085,0.7084,0.7093,0.7053,0.7063,0.7075,0.7079,0.7087,0.7094,0.7094,0.7085,0.705,0.7046,0.7055,0.7062,0.7068,0.706,0.691,0.7042,0.7041,0.704,0.704,0.7039,0.7178,0.7199,0.7187,0.7197,0.7192,0.719,0.7206,0.7188,0.7197,0.7199,0.7178,0.7193,0.7182,0.7178,0.7172,0.7182,0.7159,0.7172,0.7175,0.7178,0.7182,0.707,0.7183,0.7182,0.7182,0.7182,0.7181,0,0.7304,0.7293,0.7303,0.73,0.7308,0.7275,0.727,0.7278,0.7292,0.7285,0.7289,0.7301,0.7307,0.7285,0.7288,0.73,0.7283,0.7301,0.7298,0.7295,0.7206,0.7195,0.7314,0.7314,0.7314,0.7314,0.7314,0.7314,0.7369,0.74,0.7382,0.7409,0.7398,0.7412,0.7411,0.7408,0.7402,0.7416,0.7421,0.7406,0.7392,0.7392,0.7396,0.7389,0.739,0.7413,0.7399,0.7315,0.7302,0.729,0.728,0.7414,0.7414,0.7487,0.7488,0.7489]}]]